19.04.2024;06:00;8
19.04.2024;05:00;7
19.04.2024;04:00;6
19.04.2024;03:00;6
19.04.2024;02:00;9
19.04.2024;01:00;9
19.04.2024;00:00;11
18.04.2024;23:00;15
18.04.2024;22:00;19
18.04.2024;21:00;19
18.04.2024;20:00;19
18.04.2024;19:00;16
18.04.2024;18:00;15
18.04.2024;17:00;12
18.04.2024;16:00;19
18.04.2024;15:00;14
18.04.2024;14:00;8
18.04.2024;13:00;9
18.04.2024;12:00;14
18.04.2024;11:00;14
18.04.2024;10:00;19
18.04.2024;09:00;19
18.04.2024;08:00;18
18.04.2024;07:00;16
18.04.2024;06:00;9
18.04.2024;05:00;7
18.04.2024;04:00;7
18.04.2024;03:00;7
18.04.2024;02:00;9
18.04.2024;01:00;9
18.04.2024;00:00;10
17.04.2024;23:00;11
17.04.2024;22:00;10
17.04.2024;21:00;11
17.04.2024;20:00;8
17.04.2024;19:00;10
17.04.2024;18:00;11
17.04.2024;17:00;10
17.04.2024;16:00;10
17.04.2024;15:00;10
17.04.2024;14:00;9
17.04.2024;13:00;6
17.04.2024;12:00;8
17.04.2024;11:00;10
17.04.2024;10:00;17
17.04.2024;09:00;22
17.04.2024;08:00;18
17.04.2024;07:00;10
